STARLINK-30766, 58125

Orbit data source: Space-Track

STARLINK-30766, 58125 is a payload satellite owned by SpaceX/Seattle (US) in LEO that was launched on Sun, 22 Oct 2023 UTC via an FALCON 9 launch vehicle from the Air Force Eastern Test Range (AFETR). Payload-class satellites include a variety of spacecraft equipped with specific instruments for various scientific and technological missions. These include communications satellites like Starlink; space stations such as the ISS; scientific satellites like the Hubble; Earth observation satellites from companies like Planet Labs, Umbra, and HawkEye 360; GPS; miniature CubeSats for education and research; and military/defense satellites.

Loading next visibility...
Identifier
58125, 2023-162H
Orbit
LEO
Country
Flag of USUS
Related business
Manufacturer
SpaceX/Seattle
Mission
Operational Commercial Communications
Bus & Motor
STARLINK V2M, Unknown motor
Mass
730 kg wet, ~700 kg dry
Launch date (UTC)
2023-10-22 (3 years ago)
Launch vehicle
FALCON 9
Launch site
Air Force Eastern Test Range (AFETR)
Object type
Payload
Rocket body
Debris
Shape & HBR
Box + 2 Pan, 17.7 m
Radar Cross Section
33.884 m², Large (>1 m²)

Expand to show TLE details & history
Last TLE update: 3 days ago

TLE from 3 days ago
0 STARLINK-30766
1 58125U 23162H   26170.68747377  .00001248  00000-0  54874-4 0  9997
2 58125  43.0041 273.2909 0001703 266.7744  93.2913 15.27576793147948
Epoch: 2026-06-19T16:29Z
TLE epoch observation values (Epoch: 2026-06-19T16:29:57.733Z)
Latitude
-0.00002°
Longitude
117.88745°
Altitude
482.902 km
Speed
7.626 km/s
True Right ascension
18h 13m 09s
True Declination
0° 00' 00"
Sunlit
Object was in full shadow at epoch
Visualization orbit readout
Latitude
Unknown
Longitude
Unknown
Altitude
Unknown
Speed
Unknown
Apparent Right ascension
Unknown
Apparent Declination
Unknown
Sunlit
N/A
Visualization observer readout
Local Sidereal Time
21:50:08
Azimuth
Unknown
Elevation
Unknown
Doppler factor
Unknown
Orbital elements
Apogee altitude
486.172 km
Perigee altitude
483.834 km
Semi-major axis
6,863.14 km
Eccentricity
0.00017
Inclination
43.0041°
RAAN
273.2909°
Arg. of periapsis
266.7744°
True anomaly
93.31078°
Mean anomaly
93.2913°
Eccentric anomaly
93.30104°
Mean motion
3.81732 °/min
Orbital period
94.31 mins
BSTAR
0.000054874
Loading maneuver chart data...
Computing Atmospheric mass density...
Loading historical data...
Loading historical data...
Loading historical data...
Loading historical data...
Loading historical data...
Loading historical data...
Loading historical data...

Documentation

Showing up to 5 results
|